Home > Weather > Bremerhaven > Past weeks

Flag for Germany Past Weather in Bremerhaven, Bremen, Germany — Yesterday and Last 2 Weeks

Now
64 °F

Scattered clouds.


Feels Like: 64 °F
Forecast: 58 / 64 °F
Wind: 15 mph from Southwest

Location: Nordholz

Current Time: Jun 29, 2016 at 11:18:58 AM

Latest Report: Jun 29, 2016 at 10:20 AM


Visibility: N/A

Pressure: 29.77 "Hg

Humidity: 68%

Dew Point: 54 °F

Location of BremerhavenLocation

Past Weather in Bremerhaven — Graph

°F

Bremerhaven Temperature Yesterday

Maximum temperature yesterday: 66 °F (at 4:20 PM)
Minimum temperature yesterday: 55 °F (at 3:20 AM)
Average temperature yesterday: 61 °F

High & Low Weather Summary for the Past Weeks

 TemperatureHumidityPressure
High84 °F (Jun 23, 1:20 PM)100% (Jun 14, 10:20 PM)30.21 "Hg (Jun 14, 10:20 PM)
Low48 °F (Jun 19, 11:20 PM)49% (Jun 28, 4:20 PM)29.42 "Hg (Jun 14, 4:20 PM)
Average62 °F81%29.90 "Hg
* Reported Jun 14 9:20 AM — Jun 29 9:20 AM, Bremerhaven, Weather by CustomWeather, © 2016

Note: Actual official high and low records may vary slightly from our data, if they occured in-between our weather recording intervals... More about our weather records

Advertising

Bremerhaven Weather History for the Previous 24 Hours

Scroll right to see more
 ConditionsComfort  
Time TempWeatherWind HumidityBarometerVisibility
9:20 AM
Wed, Jun 29
63 °FScattered clouds.14 mph73%29.77 "HgN/A
8:20 AM61 °FPassing clouds.13 mph83%29.77 "HgN/A
7:20 AM57 °FPartly sunny.7 mph88%29.74 "HgN/A
6:20 AM55 °FPartly sunny.6 mph88%29.77 "HgN/A
5:20 AM55 °FLight rain. Passing clouds.5 mph88%29.77 "HgN/A
4:20 AM55 °FMostly cloudy.6 mph88%29.77 "HgN/A
3:20 AM57 °FDrizzle. Mostly cloudy.9 mph77%29.80 "HgN/A
2:20 AM59 °FDrizzle. Mostly cloudy.9 mph68%29.80 "Hg4 mi
1:20 AM59 °FMostly cloudy.9 mph68%29.83 "HgN/A
12:20 AM59 °FPassing clouds.8 mph68%29.86 "HgN/A
11:20 PM
Tue, Jun 28
59 °FPassing clouds.8 mph68%29.89 "HgN/A
10:20 PM61 °FBroken clouds.7 mph68%29.92 "HgN/A
9:20 PM63 °FPartly sunny.5 mph64%29.95 "HgN/A
8:20 PM63 °FBroken clouds.6 mph64%29.95 "HgN/A
7:20 PM64 °FPartly sunny.6 mph52%29.98 "HgN/A
6:20 PM66 °FPartly sunny.6 mph49%29.98 "HgN/A
5:20 PM66 °FScattered clouds.5 mph52%30.01 "HgN/A
4:20 PM66 °FScattered clouds.2 mph49%30.01 "HgN/A
3:20 PM64 °FPartly sunny.6 mph52%30.04 "HgN/A
2:20 PM64 °FScattered clouds.7 mph52%30.04 "HgN/A
1:20 PM64 °FPartly sunny.8 mph56%30.07 "HgN/A
12:20 PM63 °FPartly sunny.9 mph59%30.07 "HgN/A
11:20 AM63 °FScattered clouds.9 mph56%30.07 "HgN/A
Weather by CustomWeather, © 2016

See weather overviewHow to use our weather pages